Total_Precipitation_Accumulation
0.00 0.01 0.05 0.03 0.02 0.02 0.02 0.04 0.06 0.06 0.07 0.09 0.11 0.10 0.07 0.05 0.04 0.04 0.04 0.04 0.04 0.04 0.05 0.05 0.08 0.09 0.11 0.12 0.11 0.08 0.08 0.08 0.08 0.10 0.09 0.10 0.13 0.18 0.21 0.20 0.29 0.21 0.15
0.00 0.01 0.04 0.03 0.02 0.02 0.03 0.04 0.05 0.05 0.05 0.06 0.09 0.10 0.06 0.04 0.03 0.03 0.05 0.07 0.06 0.05 0.05 0.06 0.06 0.07 0.09 0.10 0.08 0.05 0.05 0.05 0.06 0.07 0.09 0.10 0.13 0.20 0.24 0.20 0.29 0.20 0.12
0.00 0.01 0.03 0.03 0.02 0.02 0.02 0.04 0.06 0.05 0.04 0.04 0.05 0.06 0.04 0.04 0.03 0.03 0.04 0.10 0.12 0.10 0.07 0.04 0.04 0.05 0.05 0.05 0.04 0.03 0.03 0.04 0.06 0.08 0.13 0.17 0.10 0.19 0.26 0.21 0.16 0.10 0.10
0.00 0.00 0.02 0.02 0.02 0.02 0.02 0.02 0.04 0.05 0.06 0.07 0.08 0.06 0.06 0.05 0.05 0.04 0.05 0.07 0.10 0.09 0.08 0.04 0.03 0.03 0.03 0.02 0.02 0.03 0.03 0.05 0.07 0.09 0.25 0.36 0.19 0.18 0.23 0.20 0.16 0.12 0.11
0.00 0.00 0.02 0.03 0.02 0.02 0.02 0.02 0.04 0.05 0.06 0.09 0.09 0.08 0.08 0.08 0.07 0.06 0.06 0.07 0.08 0.05 0.05 0.05 0.04 0.03 0.02 0.01 0.02 0.03 0.03 0.05 0.06 0.10 0.17 0.28 0.34 0.23 0.21 0.23 0.22 0.22 0.17
0.00 0.00 0.02 0.03 0.02 0.02 0.02 0.02 0.03 0.04 0.05 0.07 0.07 0.06 0.07 0.07 0.08 0.08 0.07 0.09 0.11 0.10 0.07 0.08 0.07 0.08 0.06 0.03 0.03 0.02 0.03 0.05 0.06 0.08 0.11 0.14 0.30 0.28 0.24 0.33 0.37 0.36 0.30
0.01 0.01 0.03 0.03 0.03 0.02 0.02 0.03 0.03 0.04 0.05 0.05 0.05 0.04 0.04 0.05 0.06 0.07 0.07 0.08 0.09 0.11 0.11 0.11 0.11 0.09 0.10 0.09 0.05 0.04 0.04 0.07 0.07 0.08 0.08 0.15 0.26 0.20 0.29 0.51 0.67 0.62 0.49
0.01 0.01 0.03 0.04 0.04 0.03 0.03 0.03 0.03 0.04 0.04 0.04 0.04 0.03 0.03 0.03 0.04 0.06 0.07 0.06 0.05 0.06 0.07 0.10 0.14 0.12 0.10 0.13 0.11 0.08 0.08 0.10 0.09 0.09 0.10 0.15 0.18 0.20 0.35 0.61 0.78 0.75 0.64
0.01 0.02 0.04 0.05 0.05 0.05 0.04 0.04 0.04 0.04 0.04 0.04 0.04 0.04 0.03 0.03 0.04 0.04 0.05 0.04 0.04 0.04 0.05 0.07 0.08 0.09 0.09 0.12 0.16 0.15 0.13 0.14 0.16 0.21 0.15 0.23 0.29 0.36 0.57 0.77 0.89 0.87 0.80
0.05 0.04 0.05 0.06 0.07 0.06 0.06 0.06 0.07 0.07 0.07 0.06 0.06 0.07 0.06 0.05 0.05 0.06 0.06 0.06 0.06 0.07 0.07 0.09 0.10 0.11 0.13 0.13 0.15 0.22 0.27 0.22 0.11 0.14 0.28 0.24 0.27 0.53 0.84 0.98 1.08 1.08 1.03
0.12 0.11 0.09 0.08 0.09 0.08 0.08 0.08 0.10 0.11 0.11 0.11 0.12 0.12 0.11 0.09 0.10 0.14 0.13 0.15 0.17 0.21 0.23 0.26 0.29 0.30 0.30 0.22 0.24 0.39 0.40 0.20 0.14 0.18 0.26 0.22 0.33 0.70 1.06 1.20 1.23 1.26 1.22
0.18 0.16 0.13 0.11 0.11 0.10 0.11 0.13 0.17 0.17 0.19 0.19 0.25 0.26 0.24 0.25 0.23 0.17 0.20 0.30 0.46 0.59 0.63 0.76 0.88 0.73 0.57 0.56 1.00 1.04 0.37 0.22 0.30 0.25 0.28 0.27 0.47 0.90 1.24 1.43 1.46 1.39 1.34
0.28 0.23 0.20 0.15 0.15 0.17 0.20 0.22 0.26 0.26 0.32 0.35 0.41 0.46 0.47 0.41 0.33 0.28 0.33 0.50 0.73 0.82 0.84 1.18 1.35 0.97 1.03 1.26 1.35 1.17 0.55 0.44 0.39 0.33 0.41 0.52 0.69 1.13 1.58 1.74 1.78 1.64 1.52
0.46 0.40 0.37 0.34 0.34 0.35 0.36 0.36 0.36 0.38 0.44 0.52 0.57 0.63 0.71 0.74 0.62 0.59 0.65 0.73 0.88 0.95 1.18 1.34 1.52 1.37 1.46 1.43 1.31 1.14 0.95 0.95 0.73 0.76 0.93 0.84 0.84 1.14 1.74 1.98 2.02 1.92 1.64
0.65 0.54 0.53 0.51 0.51 0.53 0.63 0.72 0.69 0.68 0.74 0.79 0.87 0.93 1.00 1.12 1.07 1.07 0.99 1.03 0.98 1.13 1.32 1.60 1.58 1.82 1.87 1.69 1.45 1.29 1.24 1.18 1.01 1.09 1.19 1.16 1.19 1.37 1.99 2.40 2.38 2.20 1.91
0.77 0.68 0.71 0.74 0.85 0.99 1.01 1.07 1.17 1.22 1.23 1.25 1.26 1.29 1.34 1.49 1.68 1.60 1.37 1.33 1.22 1.32 1.61 1.85 1.86 2.16 2.05 1.98 1.63 1.50 1.35 1.24 1.17 1.27 1.34 1.40 1.43 1.53 1.84 2.28 2.54 2.48 2.22
0.73 0.76 0.96 1.22 1.38 1.50 1.55 1.63 1.66 1.70 1.65 1.64 1.81 1.92 1.97 1.97 2.00 1.86 1.66 1.52 1.61 1.75 1.91 1.95 2.03 2.26 2.05 1.99 1.79 1.66 1.44 1.24 1.19 1.33 1.44 1.55 1.42 1.43 1.68 2.02 2.36 2.37 2.24
0.84 0.97 1.21 1.51 1.80 1.98 2.04 2.10 2.13 2.04 1.96 2.10 2.15 2.20 2.23 2.15 2.08 2.11 1.84 1.66 1.90 2.03 2.14 2.22 2.22 2.24 2.18 2.10 1.94 1.65 1.48 1.30 1.13 1.22 1.27 1.37 1.43 1.16 1.37 1.83 1.97 1.91 2.00
1.27 1.53 1.79 1.85 1.95 2.13 2.34 2.46 2.30 2.21 2.12 2.11 2.10 2.09 2.07 2.05 2.07 2.28 2.05 2.00 2.16 2.34 2.26 2.10 2.34 2.42 2.27 2.18 1.94 1.76 1.40 1.22 1.14 1.10 1.12 1.13 1.25 1.20 1.12 1.28 1.66 1.62 1.82
1.73 2.00 2.05 2.04 2.25 2.73 3.05 2.96 2.68 2.32 2.13 2.04 1.96 1.89 1.93 2.06 2.15 2.39 2.17 2.19 2.36 2.47 2.45 2.44 2.48 2.45 2.31 2.30 2.00 1.72 1.41 1.12 1.08 1.02 0.95 0.98 0.98 0.87 0.86 0.93 1.14 1.10 1.28
1.99 2.12 2.23 2.52 2.91 3.10 3.07 3.05 3.01 2.69 2.40 2.08 1.85 1.85 1.93 1.96 2.11 2.37 2.11 2.38 2.51 2.45 2.49 2.50 2.61 2.47 2.30 2.46 2.28 1.76 1.31 1.05 0.89 0.79 0.80 0.82 0.76 0.81 0.92 1.07 1.21 1.28 1.18
2.04 2.28 2.56 2.85 3.15 3.04 3.18 3.38 3.31 3.07 2.49 2.13 1.94 1.90 1.96 2.00 2.07 2.21 2.46 2.51 2.57 2.54 2.53 2.47 2.48 2.27 2.06 2.32 2.30 2.04 1.48 1.13 0.86 0.73 0.82 0.77 0.78 0.88 0.89 0.95 1.13 1.33 1.29
2.20 2.56 2.81 3.00 3.05 3.00 3.15 3.28 3.00 2.76 2.33 2.20 2.18 2.07 2.03 2.14 2.19 2.32 2.49 2.56 2.47 2.38 2.38 2.45 2.34 2.20 2.01 2.07 2.25 2.20 1.73 1.28 0.95 0.75 0.78 0.81 0.97 1.01 0.90 0.86 0.83 0.85 0.92
2.28 2.65 2.97 2.96 2.93 2.88 2.99 3.06 2.90 2.61 2.33 2.22 2.24 2.04 1.90 1.89 1.95 2.06 2.13 2.28 2.33 2.31 2.26 2.22 2.18 2.17 2.07 1.93 2.11 2.14 1.96 1.67 1.41 0.97 0.74 0.75 0.90 0.95 0.90 0.81 0.77 0.77 0.85
2.02 2.33 2.59 2.78 2.82 2.75 2.72 2.68 2.65 2.45 2.20 2.06 2.00 1.88 1.84 1.86 1.79 1.79 1.89 2.07 2.13 2.06 2.03 2.16 2.30 2.26 2.08 1.92 1.99 2.05 2.15 2.03 1.72 1.38 0.97 0.86 0.84 0.76 0.83 0.82 0.75 0.76 0.85
1.83 2.10 2.27 2.40 2.45 2.40 2.32 2.28 2.30 2.23 2.18 2.03 1.87 1.88 1.92 1.85 1.73 1.67 1.70 1.81 1.88 1.86 1.83 1.87 1.96 1.98 1.94 1.99 2.01 2.01 2.07 2.03 1.90 1.78 1.37 1.12 0.97 0.72 0.72 0.74 0.75 0.75 0.79